Location: Ernsee
(50.8780°N, 12.0389°E)
Time: 13:28:46
(UTC+00:00)

USA 32 - Pass Details

Date: 20 January 2020
Orbit: 777 x 783 km, 85.0° (Epoch: 29 January)

Event Time Altitude Azimuth Distance (km) Brightness Sun altitude
Rises 05:20:44 0° 350° (N) 3,275 7.0 -15.9°
Reaches altitude 10° 05:23:08 10° 346° (NNW) 2,343 6.2 -15.5°
Maximum altitude 05:28:14 54° 270° (W) 947 4.1 -14.7°
Drops below altitude 10° 05:33:18 10° 194° (SSW) 2,329 6.5 -13.9°
Sets 05:35:41 0° 190° (S) 3,253 7.3 -13.6°
